Wetbulb
69.04 69.36 69.15 68.90 69.26 69.05 68.30 68.84 69.71 70.79 70.72 70.75 72.38 72.41 70.84 71.83 71.91 71.10 70.62 70.50 70.28 70.13 69.42 69.54 69.27 69.40 69.80 68.72 69.06 69.19 67.57 64.99 62.87 64.92 64.57 67.65 68.56 68.16 69.67 70.18 70.80 70.72 70.53
69.24 69.08 68.49 68.53 68.62 69.26 69.03 68.55 68.90 69.32 69.87 71.21 71.42 72.34 71.94 71.89 71.96 71.37 70.98 71.54 70.19 69.86 70.37 69.72 69.80 71.42 70.39 69.68 69.10 68.86 68.24 67.95 66.70 65.34 66.12 67.46 68.13 69.65 70.72 70.69 72.58 72.99 71.83
69.42 69.01 68.48 68.11 67.92 68.19 69.28 69.60 68.29 68.97 69.46 70.76 71.95 72.19 72.10 72.33 72.16 71.65 71.30 70.75 70.59 70.76 70.86 70.38 70.19 70.07 69.72 69.71 68.99 69.10 69.35 69.57 68.23 67.03 68.34 68.83 69.64 70.14 70.19 70.67 70.47 70.71 72.23
69.35 69.46 68.84 68.36 67.84 68.31 68.62 69.13 69.77 68.45 69.18 69.92 72.06 72.51 72.76 72.83 72.96 72.70 71.95 71.35 70.66 70.97 71.47 71.38 71.06 70.83 70.38 70.00 69.98 69.75 69.91 69.49 69.76 68.93 68.00 67.78 68.47 70.09 69.64 69.13 70.43 69.61 70.99
68.68 69.22 69.44 69.60 69.08 68.26 67.96 68.53 68.90 69.51 69.18 69.38 70.49 72.19 72.43 72.95 73.12 72.64 72.96 72.60 72.21 71.25 71.26 71.58 71.45 71.46 70.49 70.00 71.51 70.64 70.54 70.01 69.49 68.81 68.11 68.25 68.86 68.79 68.99 69.13 68.18 69.29 69.61
69.47 69.08 69.86 70.03 70.14 68.93 67.88 67.57 68.44 68.60 69.33 68.35 69.31 70.28 71.72 73.17 68.50 67.68 71.32 72.24 71.65 71.71 70.99 71.18 71.74 71.18 70.54 68.33 67.98 68.49 70.96 70.61 69.46 68.79 69.02 69.26 69.59 69.20 68.84 68.18 67.12 66.54 68.25
70.00 70.00 70.07 69.49 69.59 70.32 69.64 67.69 67.22 68.12 68.23 68.45 69.12 70.43 70.23 71.88 66.07 65.87 68.10 72.38 71.71 71.51 71.37 71.28 71.05 73.01 70.61 72.15 68.67 66.70 66.52 66.36 68.02 71.38 70.53 70.31 70.13 70.54 68.82 67.08 67.48 67.28 67.60
68.33 69.61 70.69 70.82 69.64 70.45 71.01 69.86 68.37 68.06 68.04 67.67 67.99 69.35 71.01 71.44 65.41 64.10 66.32 71.54 71.51 71.51 71.75 71.88 71.79 71.78 71.44 71.74 71.81 71.34 71.12 70.81 69.11 68.88 70.20 72.20 72.26 72.40 69.78 70.30 69.83 69.15 69.81
67.33 67.46 69.06 71.54 71.33 70.66 70.58 70.99 70.99 69.78 68.85 68.75 68.31 67.97 69.14 70.01 63.94 63.41 64.60 70.30 71.35 71.50 71.42 71.22 72.18 72.35 68.36 64.61 71.12 70.73 70.34 70.80 68.43 64.02 64.72 64.66 63.93 63.53 65.14 68.32 69.10 67.57 68.41
64.79 67.22 68.65 69.98 71.97 72.48 72.15 71.31 71.85 71.97 71.07 70.89 69.66 69.05 67.62 70.61 62.37 61.60 64.05 72.13 71.32 71.58 72.35 71.64 65.14 69.57 64.25 61.68 69.03 70.54 69.56 70.68 70.81 70.01 69.43 66.47 64.33 66.70 63.94 67.55 69.79 68.50 68.38
62.68 64.08 65.45 66.76 68.72 69.51 71.80 73.02 72.45 71.84 72.17 71.42 71.09 70.64 69.65 69.94 71.17 60.16 59.84 71.07 71.35 71.14 71.26 71.33 71.54 62.23 59.92 58.69 60.30 71.34 70.15 70.55 69.37 68.76 68.52 68.52 69.37 70.45 71.32 69.72 68.95 69.90 68.20
60.29 62.53 63.67 65.22 67.35 69.96 71.08 72.35 72.85 72.27 71.41 71.13 71.13 71.14 71.67 71.08 63.45 60.81 59.20 61.39 68.25 72.04 71.23 71.77 71.01 60.51 58.27 57.37 58.14 60.68 60.27 61.38 68.49 67.78 67.17 68.44 69.31 69.77 71.18 71.83 71.72 70.44 71.41
58.55 58.94 61.10 63.32 65.31 67.46 70.78 71.32 71.96 72.18 71.83 71.40 71.02 70.87 71.39 72.36 72.32 60.72 58.30 58.56 60.48 69.76 73.27 70.11 63.49 58.78 56.05 56.97 56.89 58.93 58.60 64.89 66.97 65.62 66.60 67.39 68.90 70.23 70.17 69.98 70.56 71.17 71.67
57.21 57.49 58.89 61.17 62.66 66.70 70.12 72.14 71.89 71.67 71.46 71.48 71.27 70.77 71.16 71.98 72.45 73.01 68.07 63.78 60.35 63.28 67.21 69.98 67.53 64.40 62.21 64.15 62.93 61.11 62.78 64.92 65.41 66.30 67.48 68.77 68.25 67.78 68.11 69.24 70.21 71.82 72.21
54.59 55.04 57.67 60.44 61.31 63.35 66.30 72.04 71.96 72.58 71.22 71.73 71.67 71.95 71.11 70.55 71.30 68.28 69.36 71.42 70.98 67.42 67.73 70.43 71.41 67.55 69.61 69.05 67.71 67.95 66.77 63.78 64.26 65.83 65.84 65.56 66.24 66.96 68.11 70.30 72.02 71.96 71.96
51.28 53.37 55.75 57.35 59.35 61.87 65.09 70.39 54.17 56.43 56.17 55.08 55.81 66.18 71.71 63.80 57.80 54.46 53.63 53.45 55.26 53.81 65.51 70.68 70.87 70.98 70.53 70.63 70.71 69.60 68.75 66.22 66.37 66.67 66.35 66.80 67.28 68.07 69.17 70.80 71.57 71.96 70.71
50.93 51.84 54.49 56.05 59.16 60.77 62.60 66.16 71.53 63.56 50.55 49.28 50.19 52.91 54.54 63.35 52.00 51.27 51.27 50.91 49.46 52.72 70.80 70.99 71.05 71.47 71.36 71.17 70.85 70.95 70.54 70.53 71.03 69.93 69.13 68.88 69.58 70.21 69.36 71.28 70.22 69.24 67.79
50.56 51.35 54.99 57.50 58.39 60.17 62.40 65.52 69.31 70.68 69.47 69.98 55.62 53.09 52.00 51.09 50.55 50.91 47.83 50.73 59.21 56.11 70.71 71.72 71.48 71.54 71.85 71.27 71.17 71.06 71.21 71.18 70.35 70.87 70.03 70.46 71.16 71.25 70.58 69.67 68.88 68.52 68.04
49.80 52.71 55.36 55.55 56.97 57.58 61.11 65.38 68.14 71.55 71.34 71.26 66.28 55.81 52.18 47.83 46.74 45.11 46.20 69.37 69.87 68.05 67.14 70.30 71.16 71.63 71.27 71.66 71.61 71.81 71.90 71.00 70.33 71.28 72.02 71.93 71.23 70.28 68.23 66.83 65.77 58.58 60.34
49.19 51.94 53.54 53.57 54.67 55.59 58.68 60.53 63.96 68.27 70.28 70.48 68.72 69.72 59.59 57.70 62.45 63.47 59.49 64.63 68.45 69.87 68.81 69.08 70.86 71.72 71.43 70.48 70.55 71.10 70.13 68.56 70.15 70.33 69.99 67.32 68.09 67.15 64.94 63.14 63.45 62.60 63.72
47.05 49.42 51.74 51.56 52.02 51.09 52.81 55.43 57.07 60.69 66.67 69.88 69.54 67.32 55.99 66.21 68.32 69.58 67.52 66.85 66.21 65.33 65.83 67.34 67.77 67.64 66.41 65.42 64.34 65.11 65.50 65.84 66.33 67.28 68.59 67.50 65.20 62.91 63.34 65.73 65.80 65.12 64.10
46.91 47.86 48.90 47.99 48.58 48.26 47.25 49.79 52.26 52.68 55.11 65.67 64.99 59.53 50.73 66.53 66.19 60.49 56.49 54.52 52.38 51.51 51.68 51.97 52.13 52.01 50.87 52.17 56.39 61.62 63.86 63.57 63.10 63.14 65.01 64.84 63.83 64.43 64.27 63.91 63.24 62.59 62.23
45.17 45.33 45.76 45.74 45.70 46.10 45.60 44.77 45.50 48.94 48.24 50.98 56.63 57.40 56.53 52.98 51.31 49.81 47.94 46.62 46.46 46.08 45.77 46.19 46.66 46.91 46.78 48.35 49.08 49.99 53.87 53.14 51.07 54.33 58.44 60.81 62.12 62.44 62.83 62.63 62.93 62.67 61.73
42.46 42.27 42.36 42.37 42.99 42.99 43.26 43.25 42.80 42.52 45.79 45.25 45.18 46.64 46.74 46.38 45.05 44.44 43.86 43.02 43.35 43.63 46.55 44.27 42.00 41.49 43.95 43.90 43.75 43.51 40.21 41.76 47.47 52.27 53.92 57.55 58.17 56.29 59.80 60.35 60.57 60.76 61.42
40.41 40.57 40.24 40.02 40.11 39.82 40.46 40.67 41.98 41.44 41.16 41.56 42.46 43.19 43.36 43.14 42.03 41.52 41.24 41.03 40.89 41.77 40.87 41.10 39.35 39.05 38.98 38.98 38.71 37.83 34.62 35.93 41.88 43.21 51.63 54.98 57.16 58.33 57.22 56.88 57.92 57.86 58.97
40.16 39.57 39.21 39.13 38.89 38.75 38.46 38.26 38.64 39.52 40.07 39.84 39.54 39.41 40.46 41.85 41.53 40.92 41.30 41.00 40.44 40.49 39.44 39.25 39.05 38.83 38.26 37.98 36.49 34.21 32.85 34.09 37.95 36.74 47.27 48.72 48.90 48.71 51.54 54.27 54.61 54.25 53.27
MSLP
1013.33 1013.87 1014.58 1014.97 1015.62 1016.26 1016.95 1017.44 1017.80 1018.07 1018.28 1018.59 1018.87 1019.08 1019.39 1019.58 1019.85 1020.39 1020.71 1021.04 1021.28 1021.35 1021.51 1021.60 1021.55 1021.60 1021.63 1021.64 1021.63 1021.65 1021.72 1021.84 1022.10 1021.35 1020.83 1020.07 1019.75 1019.53 1019.04 1018.79 1018.48 1018.22 1017.91
1012.27 1013.04 1013.91 1014.46 1014.95 1015.66 1016.15 1016.63 1017.19 1017.62 1017.87 1018.12 1018.44 1018.73 1019.07 1019.32 1019.59 1020.03 1020.43 1020.80 1021.13 1021.29 1021.28 1021.42 1021.31 1021.29 1021.37 1021.41 1021.48 1021.38 1021.45 1021.51 1021.71 1021.54 1020.90 1020.34 1019.91 1019.47 1019.10 1018.81 1018.15 1017.88 1017.74
1012.51 1012.75 1013.34 1013.96 1014.40 1014.67 1015.29 1015.80 1016.44 1016.97 1017.35 1017.67 1018.04 1018.35 1018.66 1018.96 1019.17 1019.55 1019.95 1020.29 1020.63 1020.76 1020.82 1020.92 1020.83 1021.05 1021.15 1021.15 1021.18 1021.24 1021.23 1021.23 1021.32 1021.31 1020.99 1020.46 1019.98 1019.49 1019.09 1018.73 1018.45 1017.84 1017.47
1012.07 1012.62 1012.87 1013.19 1013.65 1013.96 1014.30 1015.04 1015.49 1015.99 1016.61 1017.09 1017.54 1017.87 1018.16 1018.51 1018.71 1018.98 1019.40 1019.74 1020.04 1020.26 1020.31 1020.37 1020.33 1020.44 1020.59 1020.64 1020.75 1020.81 1020.87 1021.01 1020.98 1020.92 1020.69 1020.41 1020.11 1019.50 1019.34 1019.19 1018.57 1018.11 1017.40
1011.63 1011.97 1012.05 1012.27 1012.77 1013.29 1013.59 1014.03 1014.76 1015.28 1015.69 1016.21 1016.88 1017.37 1017.71 1018.05 1018.21 1018.42 1018.77 1019.14 1019.42 1019.64 1019.70 1019.76 1019.84 1019.86 1019.88 1019.99 1020.25 1020.27 1020.44 1020.61 1020.62 1020.58 1020.49 1020.19 1019.81 1019.51 1019.39 1019.07 1018.93 1018.32 1017.49
1010.71 1010.93 1011.47 1011.74 1012.17 1012.64 1012.97 1013.19 1013.86 1014.48 1014.94 1015.48 1015.97 1016.49 1017.02 1017.35 1017.52 1017.83 1018.13 1018.51 1018.79 1019.00 1019.11 1019.12 1019.14 1019.28 1019.35 1019.45 1019.51 1019.58 1019.72 1020.02 1019.97 1020.04 1019.88 1019.76 1019.30 1019.09 1018.84 1018.78 1018.60 1018.44 1017.55
1010.06 1010.64 1011.07 1011.63 1011.85 1012.21 1012.57 1012.89 1013.17 1013.57 1014.14 1014.52 1015.01 1015.55 1015.93 1016.29 1016.73 1017.17 1017.49 1017.82 1017.96 1018.18 1018.31 1018.37 1018.45 1018.56 1018.70 1018.87 1018.85 1018.84 1018.90 1018.95 1019.00 1018.99 1019.05 1018.81 1018.60 1018.39 1018.33 1018.24 1018.14 1018.08 1017.91
1009.69 1010.07 1010.59 1010.73 1011.01 1011.39 1011.89 1012.09 1012.29 1012.76 1013.23 1013.55 1013.93 1014.49 1014.83 1015.10 1015.66 1016.20 1016.68 1017.09 1017.23 1017.31 1017.37 1017.53 1017.74 1017.77 1017.88 1018.11 1018.32 1018.37 1018.26 1018.08 1017.93 1018.11 1018.11 1017.71 1017.59 1017.24 1017.73 1017.63 1017.57 1017.54 1017.37
1010.27 1009.90 1010.03 1010.00 1010.31 1010.60 1010.91 1011.11 1011.54 1012.10 1012.44 1012.71 1012.97 1013.44 1013.84 1014.07 1014.52 1015.19 1015.84 1016.35 1016.50 1016.48 1016.62 1016.68 1016.88 1017.04 1017.07 1017.41 1017.76 1017.87 1017.69 1017.26 1016.88 1017.11 1016.99 1016.91 1016.90 1017.01 1017.21 1017.59 1017.50 1017.53 1017.09
1010.91 1010.65 1010.52 1009.86 1009.65 1009.88 1009.99 1010.26 1010.52 1011.17 1011.44 1011.86 1012.13 1012.36 1012.70 1013.21 1013.68 1014.11 1014.75 1015.26 1015.48 1015.54 1015.73 1015.82 1015.92 1016.13 1016.30 1016.64 1017.09 1017.13 1017.09 1016.54 1016.57 1016.46 1016.58 1016.50 1016.42 1016.35 1016.51 1016.88 1016.84 1017.11 1016.93
1011.37 1011.00 1010.73 1010.38 1010.37 1009.81 1009.29 1009.21 1009.54 1010.28 1010.74 1011.05 1011.23 1011.38 1011.80 1012.21 1012.67 1013.10 1013.54 1014.07 1014.19 1014.46 1014.63 1014.73 1014.86 1015.05 1015.35 1015.68 1015.99 1016.22 1015.89 1015.85 1015.92 1016.01 1016.02 1016.01 1015.82 1015.76 1015.64 1015.65 1015.81 1016.22 1016.23
1011.99 1011.49 1011.08 1010.22 1009.95 1009.65 1008.76 1008.06 1008.56 1009.10 1009.61 1009.91 1010.18 1010.48 1010.67 1011.17 1011.67 1012.03 1012.42 1012.82 1013.02 1013.28 1013.37 1013.61 1013.80 1014.01 1014.33 1014.63 1015.13 1015.06 1015.08 1015.29 1015.60 1015.78 1015.91 1015.74 1015.54 1015.19 1014.88 1014.79 1014.76 1014.95 1014.97
1012.28 1011.79 1010.90 1010.13 1009.37 1008.81 1008.34 1007.26 1007.74 1008.18 1008.53 1009.09 1009.25 1009.31 1009.60 1010.06 1010.54 1010.88 1011.36 1011.77 1012.11 1012.55 1012.45 1012.53 1012.85 1013.13 1013.47 1013.87 1014.05 1014.06 1014.31 1015.00 1015.13 1015.37 1015.13 1014.74 1014.41 1014.21 1014.19 1014.21 1014.03 1014.12 1014.21
1011.51 1010.68 1010.17 1009.74 1009.23 1008.53 1007.93 1007.03 1006.61 1006.84 1007.47 1007.86 1008.10 1008.19 1008.58 1009.01 1009.27 1009.73 1010.67 1011.27 1011.46 1011.91 1011.91 1012.02 1012.15 1012.47 1012.78 1012.89 1013.11 1013.17 1013.66 1013.83 1014.10 1014.05 1013.88 1013.62 1013.69 1013.89 1013.91 1013.78 1013.90 1013.81 1013.91
1011.90 1011.17 1010.17 1009.75 1009.06 1008.11 1007.45 1005.81 1005.54 1005.23 1005.65 1006.40 1006.65 1007.12 1007.63 1007.63 1007.51 1008.15 1008.66 1009.43 1010.03 1010.47 1011.09 1011.48 1011.54 1011.96 1012.13 1012.24 1012.23 1012.18 1012.39 1012.78 1013.12 1013.06 1013.19 1013.25 1013.33 1013.40 1013.31 1013.21 1013.17 1013.07 1013.21
1011.41 1010.88 1009.81 1009.08 1008.32 1007.49 1006.73 1005.56 1005.33 1005.05 1004.73 1005.08 1005.61 1006.19 1006.48 1006.39 1007.01 1007.61 1007.92 1008.31 1008.89 1009.63 1010.56 1010.33 1010.33 1010.64 1010.74 1010.85 1010.95 1011.06 1011.29 1011.52 1011.65 1011.93 1012.07 1012.12 1012.28 1012.38 1012.46 1012.46 1012.53 1012.63 1012.96
1011.78 1010.87 1010.75 1009.65 1009.08 1008.20 1006.99 1005.28 1004.11 1004.63 1004.91 1004.85 1005.18 1005.38 1005.88 1006.31 1006.29 1006.90 1007.10 1007.58 1008.45 1009.38 1009.25 1009.17 1009.20 1009.30 1009.37 1009.56 1009.77 1009.89 1009.92 1009.98 1010.21 1010.69 1010.99 1011.09 1011.23 1011.33 1011.44 1011.59 1011.91 1012.29 1012.69
1012.17 1011.34 1010.61 1009.20 1009.29 1008.16 1006.99 1005.98 1005.55 1004.74 1004.71 1004.53 1004.92 1005.35 1005.48 1005.62 1005.71 1006.00 1006.43 1007.63 1008.89 1009.10 1008.48 1008.25 1008.06 1008.25 1008.39 1008.56 1008.64 1008.79 1008.97 1009.11 1009.47 1009.66 1009.80 1009.80 1009.89 1010.03 1010.40 1010.99 1011.54 1011.92 1012.47
1012.17 1010.85 1009.81 1009.34 1009.25 1008.43 1007.09 1006.30 1005.61 1004.50 1003.68 1003.91 1004.59 1004.99 1005.01 1005.26 1005.75 1006.16 1006.37 1006.81 1007.29 1007.43 1007.39 1007.29 1007.11 1007.12 1007.28 1007.31 1007.34 1007.62 1007.84 1008.31 1008.53 1008.79 1009.00 1009.11 1009.10 1009.31 1009.79 1010.26 1010.71 1010.72 1010.51
1010.42 1009.12 1008.99 1009.24 1008.49 1006.98 1006.89 1006.31 1005.50 1004.69 1003.79 1003.62 1003.84 1003.71 1004.27 1005.31 1005.76 1005.89 1006.03 1006.27 1006.42 1006.19 1006.29 1006.24 1006.14 1006.01 1006.34 1006.70 1007.03 1007.12 1007.27 1007.73 1007.85 1007.90 1008.12 1008.32 1008.43 1008.49 1008.63 1009.07 1009.49 1009.71 1009.29
1010.47 1010.04 1009.92 1009.51 1008.62 1007.94 1007.88 1006.95 1006.14 1005.34 1003.89 1002.93 1002.84 1002.73 1002.74 1003.88 1004.22 1004.62 1005.09 1005.65 1005.89 1005.86 1005.94 1006.01 1005.85 1005.68 1005.75 1006.02 1006.36 1006.58 1006.91 1007.26 1007.33 1007.66 1007.85 1008.00 1008.27 1008.69 1008.89 1009.12 1009.16 1009.31 1009.34
1010.63 1010.51 1010.23 1009.82 1009.42 1008.81 1008.50 1007.79 1006.79 1005.85 1004.65 1003.11 1002.97 1003.15 1003.22 1003.80 1004.23 1004.73 1005.31 1005.81 1006.27 1006.65 1006.85 1006.92 1007.00 1007.23 1007.21 1007.31 1007.27 1007.08 1007.03 1007.49 1007.51 1007.75 1007.73 1007.72 1007.85 1008.03 1008.25 1008.33 1008.38 1009.00 1008.87
1010.78 1010.08 1009.66 1009.53 1008.80 1008.05 1008.80 1007.79 1007.09 1006.57 1005.71 1004.66 1003.99 1004.32 1004.19 1004.47 1005.16 1005.69 1006.51 1007.10 1007.33 1007.62 1008.18 1007.77 1008.17 1008.34 1008.23 1008.47 1008.74 1008.63 1008.79 1008.77 1008.57 1008.47 1008.18 1007.83 1007.79 1007.97 1008.13 1008.01 1007.83 1007.91 1008.27
1011.31 1010.95 1010.68 1010.41 1009.92 1009.50 1008.98 1007.69 1007.67 1007.65 1006.56 1006.25 1005.75 1005.99 1006.57 1006.74 1006.49 1006.87 1007.17 1007.73 1008.25 1008.85 1009.91 1008.69 1009.53 1009.73 1009.72 1009.64 1009.94 1009.86 1009.79 1009.85 1009.13 1008.49 1008.76 1008.74 1008.79 1008.67 1008.56 1008.54 1008.37 1008.21 1008.23
1011.49 1011.32 1011.05 1010.89 1010.61 1009.92 1009.48 1009.13 1008.95 1008.62 1007.94 1007.63 1007.27 1007.59 1008.09 1008.37 1008.65 1008.49 1008.53 1008.41 1009.10 1009.41 1009.87 1010.74 1011.05 1010.70 1011.18 1010.74 1010.50 1010.59 1010.33 1010.33 1009.72 1008.66 1008.63 1008.87 1009.33 1009.56 1008.78 1008.76 1009.25 1009.13 1008.59
1011.87 1011.85 1011.47 1010.83 1010.93 1010.68 1010.49 1010.42 1010.14 1009.93 1009.07 1008.79 1008.86 1009.17 1009.50 1009.60 1009.49 1010.40 1010.49 1010.33 1009.95 1009.95 1010.49 1011.15 1012.51 1011.40 1011.65 1011.94 1011.75 1011.28 1011.42 1010.50 1010.79 1010.24 1009.97 1009.91 1009.30 1009.91 1009.70 1010.03 1009.68 1009.41 1009.55
Wind_Speed
16 14 13 11 9 8 8 7 7 6 6 6 7 7 7 7 6 5 5 5 6 5 4 5 6 4 3 2 2 1 2 2 2 4 3 2 3 4 6 4 5 6 5
17 16 15 13 11 10 9 9 7 8 6 7 7 7 7 7 6 7 7 5 6 6 6 5 6 3 5 3 3 3 2 2 3 4 2 3 3 3 5 6 6 4 4
14 15 14 13 12 14 11 9 8 7 7 6 6 8 8 9 8 7 7 7 6 7 7 6 7 5 6 3 3 3 3 2 3 3 4 2 3 2 4 3 4 6 4
13 14 15 15 15 14 13 10 11 10 9 8 7 8 8 9 10 9 8 7 7 7 7 7 7 6 7 6 5 6 4 4 3 3 3 3 3 3 2 3 6 2 9
14 14 17 15 14 14 13 13 10 10 11 9 9 7 7 8 8 9 8 9 9 9 8 7 7 8 10 9 4 5 5 4 3 4 4 3 3 3 3 1 3 4 6
17 18 14 13 14 14 13 13 13 11 11 8 10 12 9 8 12 14 11 9 9 9 9 8 8 9 11 13 13 12 8 6 5 3 3 6 6 4 2 2 2 3 7
12 13 13 10 9 12 12 11 13 14 11 13 12 11 12 12 13 15 17 11 10 10 10 8 7 7 9 8 11 14 12 13 13 6 8 7 6 4 3 3 4 3 4
5 5 12 13 13 12 13 14 14 12 14 13 13 13 13 13 15 17 17 14 10 12 11 10 10 10 8 9 8 8 8 8 9 7 10 12 10 9 5 5 6 4 3
1 2 3 12 14 14 14 15 13 12 12 13 13 13 15 14 18 18 14 11 12 13 10 10 11 12 12 13 9 9 9 10 8 13 13 13 13 11 7 1 6 3 5
7 5 6 3 9 12 14 14 11 11 14 11 13 14 15 16 15 19 17 10 13 11 12 11 14 15 14 13 10 10 10 13 7 6 5 7 10 9 11 8 4 5 4
8 7 8 5 6 6 10 13 13 13 11 12 13 13 14 14 15 19 20 14 12 11 11 11 10 16 19 15 16 11 13 10 10 6 5 5 5 5 5 5 7 5 4
8 9 9 7 6 8 9 11 14 13 14 14 13 12 11 13 15 17 20 22 18 14 12 10 11 14 17 18 12 17 15 10 6 4 3 6 7 7 7 5 6 7 7
9 9 8 9 8 9 10 8 10 12 13 12 11 11 11 10 11 19 19 21 22 14 13 13 12 14 15 10 15 16 12 7 7 6 8 9 8 7 4 4 4 6 6
11 11 9 9 10 8 9 7 9 10 11 13 12 12 10 10 11 10 9 10 18 13 17 11 10 8 9 10 7 9 7 7 8 9 9 7 2 2 3 3 3 4 3
9 8 6 7 9 10 9 7 9 13 13 12 13 12 12 13 13 15 15 12 12 14 11 9 10 5 9 9 7 8 6 5 7 8 6 5 4 4 4 4 5 3 4
8 8 8 9 9 9 10 8 4 6 14 16 13 12 11 14 12 15 16 14 15 12 6 11 10 11 11 11 10 9 7 9 9 7 6 6 6 6 6 4 4 4 4
10 10 9 7 7 9 10 10 8 2 1 6 15 17 17 14 15 17 18 16 11 11 10 10 11 11 11 10 10 9 9 9 9 8 8 8 7 7 6 5 3 3 3
10 13 8 5 7 9 8 9 9 7 10 10 8 13 18 18 15 17 12 13 3 5 9 10 10 10 10 10 9 9 8 7 7 8 8 8 8 7 4 3 3 3 2
11 6 6 6 7 7 8 8 9 9 8 9 3 3 6 7 10 4 15 9 10 9 10 11 11 10 10 10 9 8 9 8 8 7 8 7 7 8 9 9 8 8 7
9 14 9 6 7 8 8 7 7 8 9 8 8 10 5 5 5 7 6 7 8 8 7 9 9 9 8 6 6 7 6 7 7 7 7 7 8 8 8 7 7 6 5
8 6 10 7 5 5 7 7 7 7 7 6 8 6 12 8 8 7 6 5 3 1 0 2 2 2 3 4 5 5 5 3 2 2 4 5 5 4 4 4 5 5 6
6 6 5 4 3 3 5 6 5 6 6 6 1 3 10 3 3 5 6 5 6 6 5 5 6 5 5 5 4 2 2 3 2 1 3 4 4 5 5 5 5 4 3
5 6 6 5 6 9 5 5 6 6 7 7 8 7 6 7 7 8 8 8 8 8 7 8 7 6 7 7 6 6 4 3 3 4 3 1 3 3 3 3 6 6 5
5 5 6 6 5 5 5 6 6 8 7 8 9 9 8 6 8 10 9 9 9 10 6 10 9 11 8 8 7 7 6 5 4 4 6 3 2 0 1 2 2 3 3
6 6 6 6 7 6 7 8 6 6 8 8 9 9 8 8 8 9 9 10 10 11 12 9 8 12 13 15 14 14 13 14 11 8 5 5 5 5 3 4 3 2 2
8 7 7 7 8 8 8 8 8 6 7 8 9 10 11 7 11 8 7 9 9 11 12 10 11 15 16 13 15 15 12 18 13 13 6 6 7 6 7 3 3 5 6
Wind_Direction
193 195 200 189 177 165 180 190 199 200 200 206 196 200 203 200 192 193 213 217 227 240 249 235 241 241 253 245 251 203 145 147 194 298 257 277 297 321 319 293 274 287 289
191 188 199 198 183 180 188 192 182 203 194 210 197 196 205 208 193 197 210 207 215 228 238 239 250 230 248 242 227 225 214 203 176 259 268 290 253 289 278 300 317 297 293
198 196 195 200 198 197 199 187 178 193 207 202 198 201 206 210 196 201 206 211 219 226 229 226 240 222 252 241 232 243 234 208 217 220 275 267 274 297 320 303 308 307 302
198 200 199 198 204 207 205 193 188 188 195 201 201 206 205 211 208 203 205 212 221 233 234 232 242 232 233 250 241 235 238 247 238 245 272 272 250 280 268 285 315 298 313
204 203 206 203 202 205 204 207 189 191 204 193 197 204 209 204 211 204 204 215 223 231 232 232 235 233 231 227 220 246 230 236 247 253 266 270 273 286 266 235 264 295 294
202 209 204 204 201 207 210 203 208 201 199 185 197 206 202 217 211 201 205 217 217 224 234 234 231 227 234 238 241 237 224 223 239 221 243 261 271 253 253 261 262 303 318
210 210 207 201 204 209 208 204 209 212 208 208 206 202 213 215 207 207 206 220 225 229 230 235 238 235 220 228 236 239 248 244 238 231 249 246 265 245 242 277 254 217 251
166 201 206 196 200 205 205 207 210 209 213 211 216 212 210 217 205 204 205 221 224 231 229 226 233 245 222 213 230 241 240 240 235 225 231 254 250 266 211 255 275 273 271
82 156 201 205 202 204 207 208 211 212 215 216 218 218 222 224 200 199 192 215 228 235 230 230 227 240 240 214 223 241 253 259 244 232 233 243 248 260 255 9 273 255 292
4 327 308 279 190 205 212 211 209 208 219 215 218 218 218 227 205 201 195 210 225 233 241 236 222 230 232 216 215 235 250 255 253 257 252 258 253 252 236 208 239 249 264
338 314 296 273 260 256 226 212 203 210 212 217 220 218 221 216 221 202 198 211 222 230 234 240 234 218 230 228 211 229 237 254 252 237 243 251 257 253 252 209 203 200 209
319 300 280 278 259 250 245 211 210 206 209 215 216 222 219 222 218 208 202 206 214 227 233 232 238 221 224 228 212 233 244 246 258 236 244 259 264 257 252 239 215 208 219
312 313 306 299 290 276 266 221 199 201 212 218 219 218 219 216 224 214 205 207 220 223 234 234 227 220 226 234 227 233 227 227 237 235 245 249 241 251 239 242 236 236 230
314 324 322 319 305 289 283 234 196 195 209 222 218 221 217 212 219 220 208 213 228 223 241 245 240 234 216 224 223 225 217 213 211 227 233 241 238 205 231 209 228 211 202
315 304 310 304 310 302 279 246 220 212 200 206 220 214 212 218 216 204 202 201 210 216 212 234 240 210 238 237 235 230 209 192 208 222 217 214 219 215 227 209 227 196 197
327 315 322 324 319 312 304 285 266 262 210 210 214 207 231 231 206 209 207 207 200 169 194 225 227 230 232 235 235 233 211 204 216 208 201 205 213 212 219 207 201 203 192
304 315 308 306 303 299 296 296 297 194 359 242 226 219 219 216 207 214 208 210 211 156 221 217 226 227 230 226 227 226 222 215 217 215 216 214 215 219 199 215 184 168 253
296 287 280 303 302 297 292 297 289 230 215 226 225 226 232 225 214 211 191 123 149 224 227 231 222 222 221 221 219 216 214 215 206 214 209 206 205 195 175 166 147 144 235
291 284 306 308 288 280 293 292 274 258 229 232 169 218 208 222 229 188 160 212 215 212 215 226 230 225 223 216 215 208 206 207 203 199 204 197 183 169 162 153 151 164 167
302 311 317 304 302 328 314 306 301 284 241 219 203 218 140 149 209 198 195 203 221 223 216 222 223 224 225 222 216 210 196 215 210 203 193 185 195 195 197 185 194 193 196
306 309 305 299 308 329 311 308 309 295 285 241 233 208 177 190 225 214 195 195 208 123 302 250 200 162 148 156 155 171 167 188 157 190 184 174 162 198 230 237 217 189 167
305 301 301 291 286 330 319 311 322 320 321 307 133 108 140 156 109 87 85 84 71 56 44 58 62 46 43 31 16 32 137 199 222 247 199 189 203 225 212 196 144 155 138
321 331 348 346 344 355 327 358 1 351 353 8 36 35 52 81 80 84 78 59 58 57 36 55 51 51 47 47 29 19 5 356 21 342 327 279 194 202 213 175 161 158 168
0 14 12 354 355 12 347 19 26 360 24 36 47 48 41 44 85 82 84 85 70 63 35 58 58 54 37 44 29 40 36 348 333 16 7 347 359 69 171 177 158 177 176
22 25 33 19 11 15 10 16 16 40 42 41 55 56 55 59 55 64 78 78 80 80 63 51 47 60 52 55 53 42 29 24 30 24 34 48 27 309 28 24 321 301 86
36 30 32 37 32 21 25 15 19 13 52 63 68 63 61 65 57 60 52 72 82 75 79 72 35 58 55 43 39 51 42 30 22 22 57 33 80 52 11 36 16 43 45